TimeEST,TemperatureF,Dew PointF,Humidity,Sea Level PressureIn,VisibilityMPH,Wind Direction,Wind SpeedMPH,Gust SpeedMPH,PrecipitationIn,Events,Conditions,WindDirDegrees,DateUTC
12:53 AM,33.1,32.0,96,29.67,6.0,ENE,11.5,-,0.09,Rain,Light Freezing Rain,60,2012-12-21 05:53:00
1:28 AM,33.8,32.0,93,29.63,7.0,ENE,12.7,-,0.03,Rain,Light Rain,60,2012-12-21 06:28:00
1:53 AM,34.0,32.0,92,29.62,7.0,ENE,10.4,-,0.06,Rain,Light Rain,60,2012-12-21 06:53:00
2:53 AM,35.1,33.1,92,29.59,6.0,NE,9.2,-,0.05,Rain,Rain,50,2012-12-21 07:53:00
3:53 AM,35.1,34.0,96,29.51,4.0,NE,15.0,-,0.14,Rain,Rain,40,2012-12-21 08:53:00
4:53 AM,34.0,33.1,96,29.49,7.0,NE,12.7,-,0.07,Rain,Light Rain,40,2012-12-21 09:53:00
5:16 AM,35.6,33.8,93,29.48,10.0,NNE,11.5,-,0.00,Rain,Light Rain,30,2012-12-21 10:16:00
5:36 AM,33.8,33.8,100,29.48,4.0,North,10.4,-,0.05,Snow,Light Snow,10,2012-12-21 10:36:00
5:53 AM,34.0,32.0,92,29.48,3.0,NNE,10.4,-,0.07,Snow,Light Snow,20,2012-12-21 10:53:00
6:01 AM,33.8,32.0,93,29.46,4.0,NNE,12.7,-,0.01,Snow,Light Snow,30,2012-12-21 11:01:00
6:53 AM,33.1,32.0,96,29.45,3.0,NE,15.0,-,0.10,Snow,Light Snow,40,2012-12-21 11:53:00
6:59 AM,33.8,32.0,93,29.45,1.8,NE,12.7,-,0.02,Snow,Light Snow,40,2012-12-21 11:59:00
7:25 AM,33.8,32.0,93,29.43,2.5,NE,12.7,-,0.06,Snow,Light Snow,40,2012-12-21 12:25:00
7:37 AM,33.8,32.0,93,29.43,1.5,NE,12.7,-,0.08,Snow,Light Snow,40,2012-12-21 12:37:00
7:46 AM,33.8,32.0,93,29.42,1.0,NE,16.1,-,0.10,Snow,Light Snow,40,2012-12-21 12:46:00
7:53 AM,33.1,32.0,96,29.42,1.0,NE,15.0,-,0.11,Snow,Light Snow,40,2012-12-21 12:53:00
8:06 AM,33.8,32.0,93,29.41,2.0,NE,16.1,-,0.03,Snow,Light Snow,40,2012-12-21 13:06:00
8:17 AM,33.8,32.0,93,29.41,1.5,NE,16.1,23.0,0.04,Snow,Light Snow,50,2012-12-21 13:17:00
8:31 AM,33.8,32.0,93,29.39,2.0,NE,19.6,27.6,0.05,Snow,Light Snow,50,2012-12-21 13:31:00
8:44 AM,33.8,32.0,93,29.37,1.2,NE,21.9,26.5,0.06,Snow,Light Snow,50,2012-12-21 13:44:00
8:53 AM,33.1,32.0,96,29.38,0.8,NE,17.3,26.5,0.08,Snow,Light Snow,50,2012-12-21 13:53:00
9:12 AM,33.8,32.0,93,29.36,1.5,NE,19.6,24.2,0.03,Snow,Light Snow,50,2012-12-21 14:12:00
9:31 AM,33.8,32.0,93,29.35,1.0,NE,16.1,24.2,0.04,Snow,Light Snow,50,2012-12-21 14:31:00
9:43 AM,33.8,32.0,93,29.34,2.0,NE,20.7,29.9,0.05,Snow,Light Snow,40,2012-12-21 14:43:00
9:53 AM,34.0,32.0,92,29.35,1.5,NE,19.6,-,0.05,Snow,Light Snow,50,2012-12-21 14:53:00
9:59 AM,33.8,32.0,93,29.32,0.8,NE,19.6,26.5,0.01,Snow,Light Snow,50,2012-12-21 14:59:00
10:23 AM,33.8,32.0,93,29.29,1.5,NE,23.0,28.8,0.03,Snow,Light Snow,50,2012-12-21 15:23:00
10:28 AM,33.8,33.8,100,29.28,3.0,NE,20.7,29.9,0.03,Snow,Light Snow,40,2012-12-21 15:28:00
10:53 AM,34.0,33.1,96,29.26,2.0,NNE,19.6,32.2,0.03,Snow,Light Snow,30,2012-12-21 15:53:00
11:07 AM,33.8,33.8,100,29.24,4.0,NNE,20.7,27.6,0.00,Snow,Light Snow,30,2012-12-21 16:07:00
11:43 AM,33.8,33.8,100,29.21,1.8,NE,18.4,27.6,0.01,Snow,Light Snow,40,2012-12-21 16:43:00
11:53 AM,34.0,33.1,96,29.21,1.5,NNE,23.0,27.6,0.02,Snow,Light Snow,30,2012-12-21 16:53:00
12:19 PM,33.8,33.8,100,29.17,0.8,NNE,16.1,-,0.02,Snow,Light Snow,30,2012-12-21 17:19:00
12:36 PM,33.8,33.8,100,29.16,1.2,NE,20.7,-,0.03,Snow,Light Snow,40,2012-12-21 17:36:00
12:53 PM,33.1,33.1,100,29.16,0.5,NE,19.6,26.5,0.05,Fog-Snow,Snow,40,2012-12-21 17:53:00
1:26 PM,33.8,33.8,100,29.11,1.5,NE,20.7,28.8,0.03,Snow,Light Snow,40,2012-12-21 18:26:00
1:32 PM,33.8,33.8,100,29.11,3.0,NE,19.6,27.6,0.03,Snow,Light Snow,40,2012-12-21 18:32:00
1:53 PM,34.0,33.1,96,29.11,10.0,NE,19.6,-,0.03,,Overcast,40,2012-12-21 18:53:00
2:53 PM,34.0,33.1,96,29.06,2.5,NE,19.6,-,0.00,Snow,Light Snow,40,2012-12-21 19:53:00
3:10 PM,33.8,33.8,100,29.04,5.0,NE,17.3,25.3,0.00,Snow,Light Snow,40,2012-12-21 20:10:00
3:45 PM,33.8,33.8,100,29.02,1.8,NE,9.2,-,0.01,Snow,Light Snow,40,2012-12-21 20:45:00
3:53 PM,34.0,33.1,96,29.04,1.8,NE,9.2,-,0.02,Snow,Light Snow,50,2012-12-21 20:53:00
3:58 PM,33.8,33.8,100,29.02,3.0,NE,8.1,-,0.00,Snow,Light Snow,50,2012-12-21 20:58:00
4:53 PM,34.0,32.0,92,29.03,4.0,Calm,Calm,-,0.01,Snow,Light Snow,0,2012-12-21 21:53:00
5:53 PM,33.1,32.0,96,29.04,3.0,SW,6.9,-,0.02,Snow,Light Snow,230,2012-12-21 22:53:00
6:41 PM,33.8,32.0,93,29.03,2.5,West,6.9,-,0.01,Snow,Light Snow,280,2012-12-21 23:41:00
6:53 PM,33.1,32.0,96,29.04,2.5,West,8.1,-,0.01,Snow,Light Snow,270,2012-12-21 23:53:00
7:19 PM,33.8,32.0,93,29.03,4.0,West,8.1,-,0.00,Snow,Light Snow,260,2012-12-22 00:19:00
7:29 PM,33.8,32.0,93,29.03,4.0,WSW,6.9,-,0.00,Snow,Light Snow,250,2012-12-22 00:29:00
7:53 PM,33.1,32.0,96,29.04,3.0,WSW,6.9,-,0.01,Snow,Light Snow,250,2012-12-22 00:53:00
8:01 PM,33.8,32.0,93,29.02,2.5,WSW,5.8,-,0.00,Snow,Light Snow,240,2012-12-22 01:01:00
8:14 PM,33.8,32.0,93,29.02,3.0,SW,6.9,-,0.00,Snow,Light Snow,230,2012-12-22 01:14:00
8:25 PM,33.8,32.0,93,29.03,2.5,SW,9.2,-,0.00,Snow,Light Snow,220,2012-12-22 01:25:00
8:37 PM,33.8,32.0,93,29.03,1.8,SW,9.2,-,0.00,Snow,Light Snow,220,2012-12-22 01:37:00
8:46 PM,33.8,32.0,93,29.03,2.5,SW,8.1,-,0.00,Snow,Light Snow,220,2012-12-22 01:46:00
8:53 PM,33.1,32.0,96,29.04,2.0,SW,10.4,-,0.01,Snow,Light Snow,220,2012-12-22 01:53:00
9:14 PM,33.8,32.0,93,29.03,1.5,SW,11.5,-,0.00,Snow,Light Snow,220,2012-12-22 02:14:00
9:24 PM,33.8,32.0,93,29.03,1.2,SW,12.7,-,0.00,Snow,Light Snow,230,2012-12-22 02:24:00
9:53 PM,33.1,32.0,96,29.04,1.2,SW,13.8,-,0.00,Snow,Light Snow,220,2012-12-22 02:53:00
10:07 PM,33.8,32.0,93,29.03,1.8,SW,13.8,-,0.00,Snow,Light Snow,220,2012-12-22 03:07:00
10:17 PM,33.8,32.0,93,29.03,2.5,SW,12.7,-,0.00,Snow,Light Snow,220,2012-12-22 03:17:00
10:26 PM,33.8,32.0,93,29.03,3.0,SW,11.5,-,0.00,Snow,Light Snow,220,2012-12-22 03:26:00
10:39 PM,33.8,32.0,93,29.04,2.5,SW,12.7,-,0.00,Snow,Light Snow,220,2012-12-22 03:39:00
10:53 PM,33.1,32.0,96,29.05,2.5,SW,11.5,-,0.00,Snow,Light Snow,230,2012-12-22 03:53:00
11:07 PM,33.8,32.0,93,29.04,4.0,SW,11.5,-,0.00,Snow,Light Snow,230,2012-12-22 04:07:00
11:53 PM,33.1,32.0,96,29.06,4.0,SW,10.4,-,0.00,Snow,Light Snow,220,2012-12-22 04:53:00